Starlink 31729

operational
NORAD ID: 59610 Int'l Des: 2024-080 Owner: SPXS Country: US Constellation: starlink
LEOCIRCULAR

Über Starlink 31729

Beschreibung wird geladen...

Live-Position

3D-Globus wird geladen...

Nächste Überflüge

Höhenverlauf

Altitude vs Time

uPlot chart will show altitude changes over time

Zweizeiliger Elementsatz

1 59610U 24080K 26036.80577772 .00001198 00000-0 53078-4 0 9991
2 59610 42.9989 214.7493 0000855 168.1219 191.9653 15.27563137 99697
Epoch: 5. Feb. 2026 • Age: 12 hours

Aktueller Status

Höhe 491.5 km
Geschwindigkeit 7.62 km/s
Subsatellitenpunkt -31.82°S, 172.98°W
Startdatum 28. Apr. 2024
Alter 1.7 years
Typ internet

Technische Details

Klassifizierung Payload
Masse 730.00 kg
Trockenmasse 700.00 kg
Gesamtmasse 730.00 kg
Länge 0.30 m
Durchmesser 4.10 m
Spannweite 29.00 m
Form Box + pan
Hersteller SPXS
Bus-Typ Starlink V2M
Phasenstatus In Orbit
Besitzer/Staat SPXS/US

Große Konstellationen

Loading constellations...